This demonstration page uses our WeatherBlox Daily Observations layout. Learn more.

Left ArrowRight Arrow

Hourly Observations for December 20, 2019

Temp ( °F °C ) Dew Point ( °F °C ) Humidity (%) Winds ( mph kmh ) Pressure ( in mb ) Visibility ( mi km ) Precip ( " mm )
12:13 am 00:13 Cloudy with Mist and Fog 48 8.9 46 7.8 93 93 Calm 30.25 1024 5 8 0.00 0.00
12:28 am 00:28 Cloudy with Mist and Fog 48 8.9 46 7.8 93 93 Calm 30.24 1024 4 6 0.00 0.00
12:53 am 00:53 Cloudy with Mist and Fog 48 8.9 46 7.8 93 93 NNE 3 6 30.23 1024 3 5 0.00 0.00
1:16 am 01:16 Cloudy with Mist and Fog 48 8.9 46 7.8 93 93 Calm 30.24 1024 3 4 0.00 0.00
1:36 am 01:36 Cloudy with Mist and Fog 48 8.9 46 7.8 93 93 Calm 30.24 1024 4 6 0.01 0.25
1:53 am 01:53 Cloudy with Mist and Fog 48 8.9 46 7.8 93 93 Calm 30.23 1024 4 6 0.01 0.25
2:09 am 02:09 Cloudy with Mist and Fog 48 8.9 47 8.3 96 96 Calm 30.24 1024 2 3 0.00 0.00
2:20 am 02:20 Cloudy with Mist and Fog 48 8.9 46 7.8 93 93 Calm 30.25 1024 2 3 0.00 0.00
2:53 am 02:53 Cloudy with Mist and Fog 48 8.9 47 8.3 96 96 Calm 30.23 1024 2 3 0.00 0.00
3:53 am 03:53 Cloudy with Light Rain 48 8.9 46 7.8 93 93 Calm 30.22 1023 3 4 0.01 0.25
4:04 am 04:04 Cloudy with Light Rain 48 8.9 47 8.3 96 96 Calm 30.24 1024 2 3 0.00 0.00
4:34 am 04:34 Cloudy with Light Rain 48 8.9 47 8.3 96 96 Calm 30.23 1024 3 5 0.02 0.51
4:50 am 04:50 Cloudy with Mist and Fog 48 9 46 8 94 94 Calm 30.23 1024 4 6 0.02 0.51
4:53 am 04:53 Cloudy with Mist and Fog 48 8.9 47 8.3 96 96 Calm 30.22 1023 4 6 0.02 0.51
5:16 am 05:16 Cloudy with Mist and Fog 48 8.9 47 8.3 96 96 Calm 30.23 1024 3 4 0.00 0.00
5:53 am 05:53 Cloudy with Mist and Fog 48 8.9 46 7.8 93 93 Calm 30.23 1024 3 4 0.01 0.25
6:53 am 06:53 Cloudy with Mist and Fog 48 8.9 47 8.3 96 96 Calm 30.24 1024 2 3 0.00 0.00
7:05 am 07:05 Cloudy with Mist and Fog 48 8.9 47 8.3 96 96 Calm 30.25 1024 2 3 0.00 0.00
7:21 am 07:21 Cloudy with Mist and Fog 48 8.9 47 8.3 96 96 Calm 30.25 1024 4 6 0.00 0.00
7:28 am 07:28 Cloudy with Mist and Fog 48 8.9 47 8.3 96 96 Calm 30.25 1024 2 3 0.00 0.00
7:53 am 07:53 Cloudy with Mist and Fog 48 8.9 47 8.3 96 96 Calm 30.23 1024 2 3 0.00 0.00
8:04 am 08:04 Cloudy with Mist and Fog 48 8.9 47 8.3 96 96 NNE 3 6 30.25 1024 2 3 0.00 0.00
8:46 am 08:46 Cloudy with Mist and Fog 49 9.4 48 8.9 97 97 Calm 30.27 1025 6 10 0.00 0.00
8:53 am 08:53 Cloudy with Mist and Fog 49 9.4 48 8.9 97 97 Calm 30.26 1025 6 10 0.00 0.00
9:53 am 09:53 Cloudy with Mist and Fog 50 10 48 8.9 93 93 S 5 7 30.25 1025 6 10 0.00 0.00
10:53 am 10:53 Cloudy with Mist and Fog 51 10.6 49 9.4 92 92 Calm 30.26 1025 2 3 0.00 0.00
11:00 am 11:00 Cloudy with Mist and Fog 51 10.6 49 9.4 92 92 Calm 30.27 1025 5 8 0.00 0.00
11:53 am 11:53 Cloudy with Mist and Fog 52 11.1 48 8.9 86 86 E 5 7 30.23 1024 5 8 0.00 0.00
12:53 pm 12:53 Cloudy with Mist and Fog 51 10.6 48 8.9 89 89 E 5 7 30.20 1023 2 3 0.00 0.00
1:15 pm 13:15 Cloudy with Mist and Fog 52 11.1 48 8.9 86 86 ENE 5 7 30.21 1023 2 3 0.00 0.00
1:28 pm 13:28 Cloudy with Mist and Fog 52 11.1 49 9.4 89 89 E 5 7 30.20 1023 2 3 0.00 0.00
1:53 pm 13:53 Cloudy with Mist and Fog 52 11.1 49 9.4 89 89 ENE 5 7 30.19 1022 5 8 0.00 0.00
2:53 pm 14:53 Cloudy with Haze 53 11.7 48 8.9 83 83 Calm 30.18 1022 6 10 0.00 0.00
3:53 pm 15:53 Cloudy 53 11.7 49 9.4 86 86 NE 5 7 30.17 1022 7 11 0.00 0.00
4:53 pm 16:53 Mostly Cloudy with Mist and Fog 51 10.6 48 8.9 89 89 NNE 3 6 30.17 1022 6 10 0.00 0.00
5:53 pm 17:53 Mostly Cloudy with Mist and Fog 49 9.4 47 8.3 93 93 NE 3 6 30.16 1021 5 8 0.00 0.00
6:53 pm 18:53 Mostly Cloudy 50 10 47 8.3 89 89 Calm 30.15 1021 7 11 0.00 0.00
7:53 pm 19:53 Mostly Cloudy with Mist and Fog 48 8.9 46 7.8 93 93 W 3 6 30.14 1021 3 5 0.00 0.00
8:05 pm 20:05 Mostly Cloudy with Mist and Fog 48 8.9 46 7.8 93 93 WNW 3 6 30.14 1021 3 4 0.00 0.00
8:31 pm 20:31 Partly Cloudy with Mist and Fog 47 8.3 46 7.8 97 97 NW 5 7 30.14 1021 3 5 0.00 0.00
8:53 pm 20:53 Clear with Mist and Fog 47 8.3 46 7.8 97 97 NNW 5 7 30.12 1020 3 4 0.00 0.00
9:02 pm 21:02 Mostly Clear with Mist and Fog 46 7.8 45 7.2 96 96 NW 3 6 30.14 1021 3 5 0.00 0.00
9:11 pm 21:11 Partly Cloudy with Mist and Fog 46 7.8 45 7.2 96 96 NW 3 6 30.14 1021 3 4 0.00 0.00
9:20 pm 21:20 Mostly Cloudy with Mist and Fog 46 7.8 44 6.7 93 93 Calm 30.13 1020 3 4 0.00 0.00
9:53 pm 21:53 Partly Cloudy with Mist and Fog 46 7.8 44 6.7 93 93 Calm 30.13 1020 2 3 0.00 0.00
9:57 pm 21:57 Partly Cloudy with Mist and Fog 45 7.2 43 6.1 93 93 NE 3 6 30.14 1021 1 2 0.00 0.00
9:59 pm 21:59 Mostly Cloudy with Mist and Fog 45 7.2 43 6.1 93 93 NNE 3 6 30.14 1021 1 2 0.00 0.00
10:05 pm 22:05 Mostly Cloudy with Fog 45 7.2 43 6.1 93 93 N 3 6 30.14 1021 0 0 0.00 0.00
10:24 pm 22:24 Partly Cloudy with Mist and Fog 45 7.2 44 6.7 97 97 Calm 30.14 1021 1 1 0.00 0.00
10:28 pm 22:28 Mostly Cloudy with Mist and Fog 46 7.8 45 7.2 96 96 Calm 30.13 1020 1 2 0.00 0.00
10:35 pm 22:35 Partly Cloudy with Mist and Fog 46 7.8 45 7.2 96 96 N 3 6 30.13 1020 1 2 0.00 0.00
10:42 pm 22:42 Mostly Cloudy with Mist and Fog 46 7.8 44 6.7 93 93 Calm 30.14 1021 1 2 0.00 0.00
10:45 pm 22:45 Partly Cloudy with Mist and Fog 45 7.2 44 6.7 97 97 N 3 6 30.14 1021 2 2 0.00 0.00
10:53 pm 22:53 Mostly Cloudy with Mist and Fog 45 7.2 44 6.7 97 97 Calm 30.12 1020 2 2 0.00 0.00
11:01 pm 23:01 Mostly Cloudy with Mist and Fog 45 7.2 44 6.7 97 97 Calm 30.14 1021 1 2 0.00 0.00
11:20 pm 23:20 Cloudy with Mist and Fog 45 7.2 44 6.7 97 97 Calm 30.14 1021 2 2 0.00 0.00
11:53 pm 23:53 Mostly Cloudy with Mist and Fog 45 7.2 44 6.7 97 97 Calm 30.11 1020 2 3 0.00 0.00
11:58 pm 23:58 Partly Cloudy with Mist and Fog 45 7.2 44 6.7 97 97 Calm 30.12 1020 2 3 0.00 0.00

Powered by AerisWeather